Date,TemperatureHighF,TemperatureAvgF,TemperatureLowF,DewpointHighF,DewpointAvgF,DewpointLowF,HumidityHigh,HumidityAvg,HumidityLow,PressureMaxIn,PressureMinIn,WindSpeedMaxMPH,WindSpeedAvgMPH,GustSpeedMaxMPH,PrecipitationSumIn
2013-1-1,50.8,38.8,30.6,37.7,32.7,28.2,93,80,55,30.27,30.21,12,0,12,0.01
2013-1-2,53.4,37.1,27.0,37.4,30.8,25.2,95,80,46,30.25,30.14,11,0,11,0.00
2013-1-3,53.2,37.0,27.0,42.0,32.9,25.2,100,86,63,30.27,30.16,8,0,8,0.01
2013-1-4,54.6,39.2,29.4,39.6,33.5,27.9,96,82,50,30.30,30.17,12,0,12,0.01
2013-1-5,53.7,40.9,31.9,45.1,38.1,30.3,95,90,71,30.26,30.08,7,0,7,0.24
2013-1-6,45.7,41.5,34.4,44.5,40.2,32.9,100,95,93,30.19,30.07,10,0,10,0.05
2013-1-7,58.3,42.2,31.0,49.3,39.2,29.7,97,90,67,30.25,30.14,5,0,5,0.01
2013-1-8,55.6,42.3,35.3,48.8,39.9,34.0,97,91,71,30.24,30.12,7,0,7,0.01
2013-1-9,53.1,42.8,35.3,47.9,39.3,33.4,97,88,66,30.16,29.97,17,1,17,0.02
2013-1-10,48.5,40.9,32.5,36.2,33.0,29.7,92,74,54,30.17,30.05,13,1,13,0.01
2013-1-11,50.1,38.4,28.8,38.7,32.4,26.5,94,80,52,30.25,30.11,13,0,13,0.00
2013-1-12,48.3,37.6,28.1,34.3,28.7,21.5,93,73,36,30.25,30.13,7,0,7,0.00
2013-1-13,47.5,33.9,22.7,29.7,22.6,16.3,93,68,30,30.27,30.17,11,0,11,0.01
2013-1-14,49.4,39.7,30.3,25.1,18.6,12.4,78,44,27,30.40,30.22,21,2,21,0.00
2013-1-15,51.0,35.8,26.7,32.6,27.3,23.3,88,73,44,30.48,30.38,9,0,9,0.00
2013-1-16,55.4,37.4,26.0,36.8,30.0,24.0,93,76,46,30.44,30.26,9,0,9,0.00
2013-1-17,61.2,40.2,26.4,38.7,30.8,24.0,93,73,33,30.27,30.14,11,0,11,0.00
2013-1-18,62.3,41.6,27.6,39.0,30.6,25.3,94,69,30,30.24,30.12,11,0,11,0.01
2013-1-19,59.4,41.7,27.1,38.3,31.8,24.8,92,71,41,30.26,30.16,11,0,12,0.00
2013-1-20,61.7,41.6,27.2,37.7,30.9,24.9,93,70,31,30.24,30.12,11,0,11,0.00
2013-1-21,61.9,41.4,26.9,42.4,33.5,24.5,93,76,45,30.19,30.09,9,0,9,0.00
2013-1-22,59.0,43.0,29.4,44.5,36.6,27.4,94,80,54,30.12,30.00,9,0,9,0.01
2013-1-23,51.3,46.0,41.1,48.6,43.4,38.7,95,91,79,30.10,29.96,11,0,11,0.09
2013-1-24,57.9,51.0,46.9,51.9,48.7,45.7,97,92,78,30.18,30.06,10,0,10,0.03
2013-1-25,64.3,53.9,48.1,55.6,50.6,46.4,100,89,73,30.18,30.03,11,0,11,0.01
2013-1-26,57.2,48.4,42.5,50.1,42.2,35.5,97,80,47,30.06,29.96,15,1,15,0.00
2013-1-27,54.2,43.4,32.6,38.8,34.6,29.4,94,73,41,30.16,30.05,11,0,11,0.00
2013-1-28,56.4,44.6,34.1,41.5,36.9,31.3,92,76,49,30.27,30.15,12,0,12,0.00
2013-1-29,55.9,39.3,33.4,41.5,35.3,31.6,95,87,57,30.35,30.27,5,0,5,0.00
2013-2-1,63.6,46.9,33.7,47.8,40.8,32.2,96,81,55,30.21,30.11,3,0,13,0.01
2013-2-2,62.5,47.9,39.6,50.7,43.2,38.0,96,85,60,30.28,30.19,2,0,11,0.00
2013-2-3,60.4,47.6,38.8,46.7,42.4,37.5,100,83,57,30.24,30.12,4,0,10,0.00
2013-2-4,63.8,47.4,36.2,50.6,42.7,34.6,96,85,56,30.17,30.04,3,0,10,0.01
2013-2-5,55.5,47.4,39.2,46.5,42.7,37.3,95,84,67,30.14,30.05,2,0,11,0.01
2013-2-6,59.7,44.8,34.4,44.2,38.8,32.9,96,81,53,30.19,30.09,2,0,10,0.00
2013-2-7,53.3,45.2,37.2,46.2,38.7,35.1,94,79,56,30.17,29.98,13,1,13,0.04
2013-2-8,53.2,42.0,33.2,40.0,36.8,30.5,95,83,53,30.00,29.92,11,0,11,0.02
2013-2-9,56.4,40.8,27.9,35.8,29.5,25.9,94,69,32,30.09,29.98,12,0,12,0.01
2013-2-10,58.1,42.4,28.4,39.3,33.4,25.9,92,73,46,30.12,30.00,19,1,19,0.00
2013-2-11,61.6,45.9,32.6,36.9,31.9,26.9,89,63,29,30.22,30.06,12,1,12,0.00
2013-2-12,60.2,44.5,31.2,40.8,35.5,28.3,95,73,44,30.35,30.22,12,0,12,0.00
2013-2-13,65.0,46.9,32.0,42.9,36.5,29.9,94,71,37,30.34,30.19,9,0,9,0.00
2013-2-14,68.8,51.2,34.8,42.8,38.7,32.7,93,66,36,30.23,30.13,15,1,15,0.00
2013-2-15,69.1,53.2,37.9,46.7,40.7,34.5,89,65,40,30.26,30.19,13,1,13,0.00
2013-2-16,67.3,50.1,37.0,48.8,42.0,34.9,95,76,45,30.23,30.03,10,0,10,0.00
2013-2-17,64.6,48.9,37.0,47.0,39.3,35.2,97,73,35,30.05,29.94,11,0,11,0.01
2013-2-18,51.6,45.9,37.8,42.1,39.1,35.0,94,78,64,30.03,29.94,19,1,19,0.00
2013-2-19,46.0,41.4,33.2,41.8,37.0,31.1,93,84,70,29.95,29.73,16,1,16,0.49
2013-2-20,58.0,42.8,29.7,39.8,34.1,28.2,95,75,39,30.05,29.82,13,1,13,0.01
2013-2-21,59.9,43.7,31.1,39.5,33.6,29.3,100,72,33,30.16,30.03,16,1,16,0.01
2013-2-22,63.9,47.0,31.7,43.3,36.7,29.6,94,71,37,30.24,30.16,11,1,11,0.00
2013-2-23,58.3,48.2,37.3,43.4,37.4,31.3,97,69,37,30.24,30.14,15,1,15,0.00
2013-2-24,61.8,45.9,33.2,32.6,28.1,19.8,85,55,21,30.25,30.15,15,1,15,0.00
2013-2-25,62.7,48.4,35.9,42.5,36.5,30.5,86,65,44,30.27,30.15,15,1,15,0.00
2013-2-26,68.3,49.7,33.0,35.0,29.6,22.6,92,53,19,30.21,30.11,13,1,13,0.00
2013-2-27,69.2,50.4,33.5,42.8,36.4,30.0,92,63,29,30.35,30.20,10,0,10,0.00
2013-2-28,69.5,53.4,40.0,52.8,45.5,37.7,94,76,51,30.43,30.35,10,0,10,0.00
2013-3-1,72.2,55.5,41.5,50.7,46.0,39.6,95,73,44,30.42,30.22,10,0,10,0.00
2013-3-2,70.0,56.7,44.1,53.8,47.5,41.6,94,73,52,30.24,30.04,7,0,7,0.00
2013-3-3,64.8,55.4,45.0,48.5,45.7,41.4,89,71,51,30.08,30.00,14,1,16,0.00
2013-3-4,61.3,47.9,40.3,48.5,41.8,36.4,92,81,45,30.13,30.03,14,1,14,0.00
2013-3-5,59.0,48.5,38.3,43.9,40.1,35.9,91,74,54,30.05,29.82,22,3,22,0.08
2013-3-6,55.1,48.8,37.2,44.6,41.0,34.6,91,75,54,30.06,29.82,27,2,27,0.11
2013-3-7,57.1,45.8,34.9,44.6,38.3,32.8,93,77,45,29.99,29.84,9,0,9,0.11
2013-3-8,60.9,48.9,38.3,44.9,41.1,36.6,96,77,44,30.04,29.81,12,1,12,0.00
2013-3-9,67.3,50.3,36.2,43.8,38.3,34.5,95,68,31,30.29,30.04,13,1,13,0.00
2013-3-10,70.0,51.6,34.8,44.2,36.7,30.5,93,63,26,30.34,30.23,13,1,13,0.00
2013-3-11,73.7,54.5,37.1,45.6,40.3,33.3,89,63,31,30.25,30.08,11,0,11,0.00
2013-3-12,76.1,57.7,41.1,51.1,45.0,36.3,90,65,37,30.14,30.04,10,1,10,0.00
2013-3-13,76.4,59.8,43.6,55.2,49.4,41.5,94,71,45,30.15,30.04,12,1,12,0.00
2013-3-14,75.2,59.9,48.4,55.8,48.1,39.7,95,69,29,30.13,30.06,11,0,11,0.00
2013-3-15,76.0,57.3,43.7,52.7,45.8,40.1,91,68,39,30.11,30.01,10,0,10,0.00
2013-3-16,75.2,56.9,45.6,52.2,46.4,42.0,96,71,35,30.08,30.00,14,1,14,0.00
2013-3-17,71.1,56.4,41.1,45.3,41.3,32.9,89,60,25,30.13,30.01,11,0,11,0.00
2013-3-18,69.8,54.8,39.5,49.9,43.0,36.2,92,67,42,30.10,30.00,12,0,12,0.00
2013-3-19,74.5,57.3,44.1,47.2,44.2,39.0,89,65,37,30.10,30.03,13,1,13,0.00
2013-3-28,71.0,59.3,51.8,54.4,51.8,48.4,94,78,52,30.07,30.00,3,0,11,0.00
2013-3-29,76.9,61.3,45.3,54.8,50.5,43.7,94,71,45,30.09,29.99,3,1,12,0.00
2013-3-30,71.6,59.7,53.5,54.4,51.3,49.3,93,76,48,30.05,29.95,5,1,13,0.04
2013-3-31,67.4,58.0,50.2,54.5,51.1,47.9,95,79,50,30.06,29.99,3,1,14,0.22
2013-4-1,67.7,57.0,47.2,55.0,50.9,44.4,96,82,55,30.14,30.04,3,0,12,0.06
2013-4-2,72.1,56.2,44.1,55.6,48.5,42.3,96,78,51,30.17,30.05,2,0,11,0.00
2013-4-3,78.4,62.9,45.3,55.6,49.9,43.4,95,66,37,30.13,29.95,9,0,9,0.00
2013-4-4,65.7,57.3,51.5,57.0,52.0,48.0,95,83,70,30.11,29.97,14,1,14,0.26
2013-4-5,63.7,57.9,52.8,52.7,50.7,49.0,93,77,65,30.17,30.10,11,0,11,0.00
2013-4-6,65.9,57.0,50.3,55.0,50.7,46.9,90,80,63,30.18,30.11,14,1,14,0.00
2013-4-7,63.7,54.3,46.5,53.9,48.1,44.2,95,80,61,30.16,29.82,12,1,20,0.13
2013-4-8,67.8,55.1,45.4,47.2,37.4,26.2,88,56,21,30.01,29.79,21,3,26,0.00
2013-4-9,75.7,60.0,43.8,41.2,35.7,29.0,84,45,19,30.08,30.00,25,2,25,0.00
2013-4-10,86.7,66.5,49.7,52.4,46.5,38.9,78,52,29,30.16,30.00,13,1,13,0.00
2013-4-11,74.2,61.1,47.7,50.8,47.1,42.0,89,63,33,30.03,29.81,10,1,10,0.00
2013-4-12,80.0,59.2,42.3,52.8,45.0,40.0,94,65,27,29.90,29.80,10,0,10,0.00
2013-4-13,70.2,57.1,46.9,51.1,45.9,42.6,87,67,48,29.89,29.79,14,1,14,0.00
2013-4-14,70.4,55.5,40.8,46.4,41.3,34.8,92,63,32,29.91,29.80,22,1,22,0.00
2013-4-15,59.7,51.8,46.3,46.5,39.5,33.5,83,64,40,29.94,29.82,22,2,22,0.00
2013-4-16,67.3,53.5,36.4,38.8,32.5,23.0,88,50,20,30.14,29.93,16,1,16,0.00
2013-4-17,69.3,55.9,41.9,36.7,30.7,24.5,71,42,20,30.25,30.14,18,1,18,0.00
2013-4-18,77.7,58.8,40.9,42.8,36.9,33.0,80,49,22,30.26,30.15,13,0,13,0.00
2013-4-19,83.7,64.8,45.5,52.0,44.8,39.3,80,52,28,30.22,30.04,9,1,9,0.00
2013-4-20,82.4,64.5,46.3,49.0,44.2,37.8,88,53,23,30.09,29.94,15,0,15,0.00
2013-4-21,87.0,67.0,47.9,50.8,43.4,36.9,83,48,18,30.02,29.91,9,1,9,0.00
2013-4-22,89.6,69.9,51.4,52.0,44.0,35.9,79,46,16,29.95,29.81,13,0,13,0.00
2013-4-23,84.5,69.1,53.0,45.0,33.9,24.2,71,31,14,29.93,29.81,17,1,17,0.00
2013-4-24,79.8,60.2,43.9,50.1,44.2,35.3,86,61,25,29.92,29.79,11,0,11,0.00
2013-4-25,69.3,57.9,48.5,52.0,48.4,44.3,88,72,52,30.11,29.92,13,0,13,0.00
2013-4-26,79.2,59.6,43.6,56.0,48.1,40.9,94,69,38,30.20,30.10,10,1,10,0.00
2013-4-27,87.5,62.2,43.4,59.5,48.9,40.9,94,66,32,30.20,30.03,9,0,9,0.00
2013-4-28,89.5,67.2,47.2,58.3,51.0,44.1,90,61,29,30.05,29.86,11,0,11,0.00
2013-4-29,91.0,72.7,54.1,57.3,50.4,45.3,85,51,23,29.88,29.73,11,0,11,0.00
2013-4-30,85.9,68.3,50.8,53.0,42.3,27.5,88,47,15,29.83,29.76,12,1,12,0.00
2013-5-1,86.3,72.7,60.7,40.1,30.2,22.9,44,21,15,30.07,29.83,18,1,18,0.00
2013-5-2,91.0,73.0,53.5,45.5,37.6,26.1,65,31,14,30.14,30.05,9,0,9,0.00
2013-5-3,91.3,71.7,51.8,46.5,39.9,33.4,57,34,17,30.07,29.77,7,0,7,0.00
2013-5-4,90.2,70.3,54.3,49.7,42.1,36.3,75,41,16,29.77,29.52,13,1,13,0.00
2013-5-5,68.9,60.5,54.0,51.4,47.6,44.3,73,63,47,29.79,29.58,14,1,14,0.00
2013-5-6,70.6,61.3,52.1,56.2,50.6,48.0,87,69,47,29.96,29.79,11,0,11,0.01
2013-5-7,73.3,61.3,49.7,53.3,49.6,46.6,91,68,44,30.02,29.94,11,0,11,0.00
2013-5-8,68.3,57.0,48.9,51.5,48.8,45.9,91,75,50,30.12,30.02,12,1,12,0.00
2013-5-9,74.2,59.4,47.7,55.0,49.3,45.0,91,71,50,30.15,30.05,10,1,10,0.00
2013-5-10,83.1,61.9,47.0,59.4,51.3,44.2,93,71,43,30.16,30.05,13,1,13,0.00
2013-5-11,93.9,69.7,50.1,62.5,51.7,42.2,92,59,23,30.12,30.00,11,0,11,0.00
2013-5-12,87.1,70.2,52.4,58.1,51.9,45.5,85,56,32,30.11,29.99,10,1,10,0.00
2013-5-13,87.8,67.3,49.3,58.4,51.7,44.9,86,61,35,30.06,29.91,9,0,9,0.00
2013-5-14,76.0,63.3,53.3,55.1,49.7,45.7,84,63,38,29.99,29.89,16,2,16,0.00
2013-5-15,66.8,57.8,51.1,50.8,47.6,44.9,85,70,50,30.03,29.96,18,3,18,0.00
2013-5-16,70.0,58.5,52.3,55.9,50.8,47.9,87,76,55,30.02,29.94,15,2,15,0.00
2013-5-17,68.7,58.2,49.6,50.1,46.7,43.6,87,67,46,30.06,29.95,12,1,12,0.00
2013-5-18,77.5,62.2,50.2,52.9,49.1,45.4,85,65,37,30.10,30.05,11,1,11,0.00
2013-5-19,85.8,65.9,46.9,51.8,45.6,39.7,91,54,22,30.10,29.95,11,1,11,0.00
2013-5-20,90.8,69.9,50.3,53.1,43.4,36.0,81,45,17,29.99,29.89,13,0,13,0.00
2013-5-21,73.8,61.4,52.2,50.6,45.1,39.2,79,57,35,29.96,29.88,13,1,13,0.00
2013-5-22,69.1,55.9,43.4,43.7,36.1,25.5,76,51,20,29.99,29.88,15,1,15,0.00
2013-5-23,70.3,57.6,42.3,46.1,42.8,39.3,90,61,39,29.96,29.90,16,1,16,0.00
2013-6-6,88.6,65.2,49.0,60.1,52.3,46.0,90,67,37,29.92,29.79,2,0,11,0.00
2013-6-7,101.4,74.3,53.0,64.9,55.7,49.2,87,58,29,29.84,29.69,3,0,11,0.00
2013-6-8,105.3,79.0,63.1,63.4,56.7,49.5,72,51,24,29.75,29.63,4,1,13,0.00
2013-6-9,76.7,63.7,57.0,57.5,54.0,52.2,85,72,50,29.86,29.75,3,1,13,0.00
2013-6-10,71.1,62.3,54.0,54.0,52.1,49.6,85,70,53,29.93,29.78,5,1,18,0.00
2013-6-11,81.3,64.0,50.6,56.4,52.0,47.5,91,68,41,29.96,29.86,3,0,11,0.05
2013-6-12,81.6,67.6,49.5,51.8,48.8,43.0,88,54,28,29.97,29.88,15,2,15,0.00
2013-6-13,84.5,65.9,46.2,50.4,46.7,42.5,91,55,24,30.07,29.96,10,1,13,0.00
2013-6-14,87.8,69.6,49.9,51.3,45.4,37.2,85,48,18,29.97,29.79,13,1,13,0.00
2013-6-15,80.0,64.6,52.4,53.0,48.5,41.6,81,58,35,29.97,29.78,14,1,14,0.00
2013-6-16,85.3,66.3,47.0,52.0,48.4,43.9,92,58,27,30.06,29.96,14,1,14,0.00
2013-6-17,78.9,64.2,49.0,57.0,52.0,45.9,92,67,43,30.06,30.00,12,1,12,0.00
2013-6-18,70.9,61.7,51.8,51.7,49.4,47.0,89,66,45,30.01,29.95,14,1,14,0.00
2013-6-19,76.0,63.2,47.0,50.0,47.5,42.7,87,60,38,30.03,29.97,17,1,17,0.00
2013-6-20,80.5,64.3,47.0,52.7,48.1,43.5,89,60,32,29.99,29.91,13,1,13,0.00
2013-6-21,85.7,67.4,47.5,53.0,47.9,39.5,91,56,22,29.96,29.88,12,1,12,0.00
2013-6-22,91.7,70.6,51.2,53.2,49.2,44.3,85,53,22,29.91,29.80,13,1,13,0.00
2013-6-23,71.0,61.7,55.0,61.1,56.0,51.3,91,82,69,29.87,29.79,18,2,18,0.00
2013-6-24,66.7,62.5,59.0,60.1,57.7,55.1,89,84,78,29.89,29.76,10,0,10,0.01
2013-6-25,77.9,67.9,60.2,64.8,60.9,56.5,90,79,63,29.97,29.86,16,2,16,0.04
2013-6-26,86.6,73.0,63.1,65.7,61.3,58.6,88,69,43,30.03,29.95,12,1,12,0.00
2013-6-27,95.3,76.5,56.6,63.3,57.7,52.5,93,58,24,30.06,29.97,11,0,11,0.00
2013-6-28,103.8,83.4,61.8,63.7,57.4,51.6,81,46,20,30.01,29.86,15,0,15,0.00
2013-6-29,106.5,85.0,62.7,61.9,56.8,52.2,73,42,22,29.88,29.76,12,1,12,0.00
2013-6-30,102.0,83.2,63.7,63.2,56.8,50.8,71,44,19,29.82,29.72,10,0,10,0.00
2013-7-1,103.5,82.6,62.3,63.7,58.0,51.2,77,48,19,29.80,29.76,10,0,10,0.00
2013-7-2,103.1,83.5,69.7,62.3,58.8,55.5,69,46,25,29.87,29.78,13,2,13,0.00
2013-7-3,104.3,82.3,64.1,64.7,59.6,56.1,78,50,25,29.87,29.72,10,1,10,0.00
2013-7-4,105.3,85.2,70.2,66.1,59.0,49.0,65,44,24,29.75,29.62,11,1,11,0.00
2013-7-5,75.3,64.1,55.3,54.9,51.9,48.1,85,66,46,29.77,29.68,21,3,21,0.00
2013-7-6,83.7,67.2,55.4,55.9,53.2,51.0,86,64,36,29.77,29.68,14,2,14,0.00
2013-7-7,89.8,69.7,50.1,56.4,51.9,47.3,92,59,26,29.83,29.73,13,1,13,0.00
2013-7-8,90.8,71.0,49.7,56.3,50.4,41.8,92,55,19,29.93,29.82,13,1,13,0.00
2013-7-9,101.1,78.2,55.5,59.7,52.7,42.6,87,48,14,29.99,29.88,9,0,9,0.00
2013-7-10,69.7,62.6,56.9,52.8,51.1,49.7,78,66,53,29.93,29.90,1,0,1,0.00
2013-8-27,89.0,76.6,60.8,58.6,56.1,50.6,84,52,29,29.87,29.78,11,1,11,0.00
2013-8-28,87.5,69.1,54.0,62.7,57.8,51.6,94,71,40,29.92,29.83,10,1,10,0.00
2013-8-29,87.1,70.0,55.9,64.0,58.8,53.7,95,71,38,30.03,29.92,12,1,12,0.00
2013-8-30,96.2,74.6,57.7,63.8,58.4,51.9,94,63,25,30.02,29.88,10,0,10,0.00
2013-8-31,88.8,71.3,55.5,59.1,53.6,44.1,89,59,25,29.94,29.85,14,1,14,0.00
2013-9-1,87.5,71.2,58.8,59.6,56.4,54.3,86,63,34,29.92,29.83,10,0,10,0.00
2013-9-2,84.6,71.2,64.1,63.7,60.3,58.1,84,70,45,29.93,29.85,10,1,10,0.00
2013-9-3,80.9,67.9,55.1,58.7,55.2,51.9,90,67,39,29.97,29.90,8,1,14,0.00
2013-9-4,80.5,68.2,59.0,59.4,57.1,54.6,87,70,45,30.00,29.91,18,1,18,0.00
2013-9-5,81.0,68.2,57.6,58.0,55.7,52.7,87,67,39,29.99,29.91,13,2,14,0.00
2013-9-6,92.5,71.0,51.0,58.3,51.4,46.4,94,57,22,29.97,29.80,10,0,10,0.00
2013-9-7,97.8,76.1,55.2,53.4,49.2,46.8,79,44,19,29.86,29.76,9,0,9,0.00
2013-9-8,97.7,76.6,57.5,57.1,51.3,46.6,78,46,18,29.84,29.70,9,0,9,0.00
2013-9-9,100.9,77.4,58.7,58.5,52.1,46.0,75,46,18,29.79,29.66,10,0,10,0.00
2013-9-10,83.3,69.0,58.4,60.2,56.0,50.8,87,65,42,29.87,29.70,11,0,11,0.00
2013-9-11,76.6,65.3,58.1,59.0,56.7,54.5,89,75,51,29.97,29.86,10,0,10,0.00
2013-9-12,84.8,68.5,59.0,62.6,58.4,54.7,86,72,45,29.96,29.83,12,0,12,0.00
2013-9-13,87.3,66.7,54.9,61.2,55.4,51.7,92,71,34,29.88,29.72,10,1,10,0.00
2013-9-14,76.1,63.4,54.3,58.7,54.5,50.6,92,74,51,29.80,29.70,16,2,16,0.00
2013-9-15,80.2,65.8,56.0,58.6,54.9,51.7,88,70,44,29.84,29.75,15,1,15,0.00
2013-9-16,86.3,66.5,54.3,60.9,56.0,52.3,95,72,33,29.87,29.76,18,1,18,0.00
2013-9-17,75.5,65.0,55.9,56.0,53.7,50.1,88,69,42,29.87,29.80,16,2,16,0.00
2013-9-18,84.7,65.3,48.8,55.0,47.7,37.0,92,59,20,29.89,29.78,11,0,11,0.00
2013-9-19,91.8,69.4,49.7,48.9,44.0,38.8,79,46,17,29.84,29.71,9,0,9,0.00
2013-9-20,74.4,63.6,51.0,59.5,54.0,45.1,87,71,58,29.85,29.73,13,1,13,0.00
2013-9-21,67.5,60.6,51.8,58.4,55.4,49.5,92,83,66,29.89,29.78,14,1,14,0.80
2013-9-22,74.3,59.3,47.2,56.2,51.1,45.6,96,77,46,29.99,29.88,11,0,11,0.01
2013-9-23,82.1,64.5,49.0,58.6,53.2,47.1,95,71,37,30.01,29.90,7,0,7,0.00
2013-9-24,76.1,63.1,53.8,57.5,52.8,47.0,94,71,44,29.97,29.87,15,1,17,0.00
2013-9-25,69.4,58.9,48.1,49.3,45.9,43.5,88,64,41,29.92,29.80,9,0,13,0.00
2013-9-26,74.7,58.0,42.4,47.2,41.8,34.2,92,60,26,29.97,29.82,12,0,12,0.00
2013-9-27,76.8,60.1,44.5,47.7,39.9,35.4,85,52,23,30.08,29.96,10,0,10,0.00
2013-9-28,84.9,65.2,48.1,54.7,40.4,32.4,81,46,16,30.07,29.96,16,0,16,0.00
2013-9-29,75.7,63.5,51.8,58.5,55.3,49.3,94,76,53,30.09,30.02,11,1,11,0.00
2013-9-30,74.0,65.4,55.5,60.9,58.5,51.2,91,79,61,30.06,29.94,11,0,11,0.01
2013-10-1,74.6,60.7,48.5,53.1,50.0,45.4,91,70,43,30.00,29.89,9,0,9,0.01
2013-10-2,77.8,59.9,46.5,52.9,47.7,43.1,93,68,38,29.99,29.90,12,0,12,0.00
2013-10-3,72.4,60.0,42.5,45.1,36.9,30.0,89,49,23,30.05,29.93,18,1,18,0.00
2013-10-4,77.8,67.7,54.8,36.2,32.4,29.5,46,27,19,30.09,29.95,19,2,19,0.00
2013-10-5,81.3,65.8,47.6,41.2,34.2,26.1,63,34,18,30.19,30.09,11,1,11,0.00
2013-10-6,82.0,61.7,43.3,45.1,39.2,35.5,76,47,23,30.12,29.98,6,0,6,0.00
2013-10-7,85.2,64.4,47.1,46.0,38.3,30.6,72,44,17,29.99,29.84,9,0,9,0.00
2013-10-8,76.8,60.1,46.0,47.7,43.5,39.5,84,58,29,29.89,29.69,7,0,11,0.00
2013-10-9,68.8,56.8,47.6,48.3,44.5,40.6,88,66,38,29.74,29.61,12,0,12,0.00
2013-10-10,74.3,57.4,45.3,47.7,42.7,39.9,84,62,30,29.99,29.74,10,0,10,0.00
2013-10-11,71.7,55.7,43.2,52.4,45.9,40.8,94,72,45,30.06,29.94,8,0,8,0.00
2013-10-12,74.7,55.4,42.0,50.2,44.1,39.2,93,69,37,29.99,29.87,7,0,12,0.00
2013-10-13,72.1,56.0,42.2,50.6,42.5,39.1,94,65,31,30.05,29.91,9,0,9,0.00
2013-10-14,75.2,57.3,41.5,46.7,39.7,36.6,88,57,26,30.11,29.98,14,0,14,0.00
2013-10-15,77.7,60.4,42.4,39.9,36.6,33.1,84,47,22,30.04,29.93,16,1,16,0.00
2013-10-16,78.9,59.7,42.9,42.7,38.2,35.4,79,49,24,30.08,29.98,4,0,9,0.00
2013-10-17,79.9,59.7,43.1,43.4,38.1,34.5,80,49,21,30.07,29.93,7,0,7,0.00
2013-10-18,79.6,60.2,43.6,42.6,38.8,34.4,74,49,25,30.03,29.95,9,0,9,0.00
2013-10-19,80.7,60.2,42.9,46.2,42.0,37.8,86,55,26,30.06,29.96,8,0,8,0.00
2013-10-20,82.3,60.4,42.7,48.8,43.0,38.3,86,57,23,30.01,29.87,6,0,6,0.00
2013-10-21,76.8,59.1,44.8,50.8,46.5,41.8,91,66,35,29.98,29.88,6,0,6,0.00
2013-10-22,78.7,58.7,43.1,52.1,46.7,40.6,93,68,35,30.00,29.88,7,0,7,0.00
2013-10-23,78.2,57.4,44.2,52.5,46.9,41.5,93,72,33,29.95,29.84,10,0,10,0.00
2013-10-24,62.5,52.4,44.7,50.2,46.1,42.0,94,81,60,30.08,29.94,11,0,11,0.00
2013-10-25,71.7,54.5,41.1,51.1,45.5,39.2,95,75,44,30.16,30.05,10,0,10,0.00
2013-10-26,77.1,57.7,43.2,50.7,44.9,40.5,93,66,34,30.13,29.99,7,0,7,0.01
2013-10-27,61.6,52.2,44.4,50.4,45.7,41.1,92,79,64,30.00,29.62,28,2,28,0.00
2013-10-28,61.2,51.9,41.2,48.0,44.5,38.2,93,77,56,29.83,29.66,15,1,15,0.00
2013-10-29,61.6,54.3,43.5,48.2,45.6,40.1,88,73,54,30.04,29.83,11,0,11,0.00
2013-10-30,65.0,50.8,39.2,48.1,42.5,37.1,94,75,46,30.14,30.03,7,0,7,0.00
2013-10-31,71.2,53.6,39.4,46.7,41.9,37.0,93,68,36,30.17,30.05,9,0,9,0.00
2013-11-1,72.2,54.2,39.8,48.3,43.2,36.8,91,69,40,30.14,30.00,7,0,7,0.00
2013-11-2,73.5,55.1,41.4,51.0,44.5,38.1,90,71,38,30.02,29.87,7,0,7,0.00
2013-11-3,63.2,49.5,36.5,44.3,35.6,28.7,94,64,28,30.03,29.91,9,0,9,0.01
2013-11-4,67.2,50.5,33.2,42.1,32.1,27.4,96,55,23,30.04,29.91,16,0,16,0.00
2013-11-5,69.4,55.1,41.1,38.7,35.0,31.1,74,49,30,30.21,30.04,11,0,11,0.00
2013-11-6,68.9,53.5,40.3,43.2,39.0,35.0,83,60,35,30.25,30.15,7,0,7,0.00
2013-11-7,74.8,56.6,44.4,44.5,40.4,37.4,79,58,28,30.16,30.04,4,0,4,0.00
2013-11-8,75.1,56.2,41.2,49.7,44.6,38.6,92,68,38,30.07,29.93,6,0,6,0.00
2013-11-9,70.0,53.6,39.9,48.8,43.8,37.2,92,72,44,30.01,29.94,7,0,7,0.00
2013-11-10,69.0,52.0,40.0,50.8,44.3,37.6,93,77,37,30.09,30.01,6,0,6,0.00
2013-11-11,65.3,53.0,40.1,50.3,45.9,38.0,95,78,53,30.15,30.06,8,0,8,0.00
2013-11-12,61.8,54.0,52.3,50.4,48.0,47.0,84,80,63,30.24,30.13,7,0,7,0.00
2013-11-13,77.1,60.9,49.3,52.1,47.1,44.1,84,63,33,30.10,30.07,4,0,4,0.00
2013-11-14,72.1,54.1,45.0,54.0,47.3,41.9,94,80,49,30.09,29.84,9,0,9,0.00
2013-11-15,64.4,50.7,38.1,46.0,38.7,34.7,89,66,35,29.86,29.70,9,0,9,0.00
2013-11-16,62.4,52.2,44.8,48.5,44.0,39.9,92,75,46,29.92,29.75,11,1,11,0.00
2013-11-17,61.9,52.4,43.2,47.4,45.4,40.5,91,78,53,30.07,29.91,9,0,9,0.00
2013-11-18,59.5,48.9,38.9,48.2,43.2,37.0,95,82,55,30.13,30.06,11,0,11,0.01
2013-11-19,60.8,53.9,48.2,53.6,49.8,44.8,95,86,70,30.09,29.94,6,0,6,0.38
2013-11-20,58.5,54.7,49.7,56.5,53.2,48.3,96,95,91,29.94,29.82,7,0,7,0.42
2013-11-21,59.9,53.0,45.7,50.7,40.0,25.1,96,68,28,29.95,29.87,21,1,21,0.07
2013-12-5,47.9,42.5,27.6,24.7,19.4,15.2,82,40,27,30.15,30.08,7,0,7,0.00
2013-12-6,51.8,44.9,30.5,32.4,27.4,20.6,80,50,43,30.17,29.88,7,2,7,0.00
2013-12-7,48.5,45.3,39.1,31.7,28.6,24.4,71,52,43,30.24,29.90,15,3,22,0.00
2013-12-8,43.4,40.4,26.2,29.5,22.9,10.2,93,50,40,30.31,30.21,15,0,15,0.01
2013-12-9,48.4,42.1,39.5,26.2,21.2,10.7,51,43,30,30.41,30.28,17,1,17,0.00
2013-12-10,50.6,43.3,25.3,30.5,27.9,23.0,92,55,39,30.41,30.19,11,0,11,0.00
2013-12-11,54.2,45.9,30.3,33.5,30.7,17.2,92,56,38,30.24,30.16,12,0,12,0.00
2013-12-12,56.3,39.0,0.0,36.0,27.6,0.0,93,48,41,30.26,30.14,8,0,8,0.00
2013-12-13,59.0,49.9,32.6,39.1,34.0,20.8,94,56,31,30.32,30.21,10,0,10,0.00
2013-12-14,58.2,50.4,31.8,38.8,34.9,29.5,93,56,43,30.40,30.29,11,0,11,0.00
2013-12-15,59.7,51.4,32.5,40.0,36.9,20.1,92,58,44,30.36,30.23,10,0,10,0.00
2013-12-16,65.0,55.1,34.7,40.9,37.3,32.6,92,52,34,30.25,30.10,5,0,10,0.00
2013-12-17,61.7,55.2,37.7,44.0,39.8,19.8,92,57,48,30.18,30.02,6,0,6,0.00
2013-12-18,64.3,56.2,36.9,43.3,41.5,33.8,90,58,43,30.02,29.74,13,2,13,0.00
2013-12-19,58.6,54.8,36.7,43.2,35.6,28.6,94,50,32,29.91,29.70,14,2,14,0.00
2013-12-20,59.4,52.6,31.1,30.0,24.1,12.5,74,34,17,29.99,29.90,6,0,7,0.00
2013-12-21,60.3,52.2,33.5,42.5,32.0,7.3,82,48,33,30.08,29.94,10,0,10,0.00
2013-12-22,62.9,55.5,35.5,42.2,38.5,33.5,99,54,41,30.27,30.08,13,0,13,0.00
2013-12-23,59.6,54.3,36.3,41.5,39.6,34.3,93,58,48,30.38,30.27,9,0,9,0.00
2013-12-24,66.5,56.8,37.1,43.2,40.5,25.8,93,56,41,30.33,30.18,11,0,11,0.00
2013-12-25,62.1,55.9,33.6,43.7,40.7,16.0,93,57,48,30.29,30.18,11,0,11,0.00
2013-12-26,64.4,54.4,32.8,43.2,39.1,31.0,98,57,36,30.25,30.15,9,0,10,0.00
2013-12-27,56.6,52.9,36.1,44.5,41.0,33.8,93,64,55,30.24,30.10,6,0,6,0.00
2013-12-28,64.9,55.3,32.2,44.2,36.2,23.5,94,52,27,30.14,30.00,16,0,16,0.00
2013-12-29,61.4,57.2,55.9,33.3,29.4,19.1,41,35,23,30.17,30.07,15,1,15,0.00
2013-12-30,61.1,54.2,31.0,41.3,36.1,28.0,90,52,38,30.25,30.17,7,0,7,0.00
2013-12-31,60.7,53.7,50.0,40.2,37.7,32.8,61,55,36,30.26,30.14,11,0,11,0.00
2014-1-1,63.9,55.0,31.5,38.3,35.4,28.1,88,49,32,30.20,30.10,9,0,9,0.00
2014-1-2,63.6,55.8,33.6,38.9,37.4,15.9,87,51,38,30.17,30.04,10,0,10,0.00